Regional Weather Roundup
Issued by NWS

Home | Current Version | Previous Version | Text Only | Print | Product List | Glossary On
Versions: 1 2 3 4 5 6 7 8 9 10 11 12 13 14 15 16 17 18 19 20 21 22 23 24 25 26 27 28 29 30 31 32 33 34 35 36 37 38 39 40 41 42 43 44 45 46 47 48 49 50
000
ASUS44 KFWD 120710
RWRTX
NORTH TEXAS HOURLY WEATHER ROUNDUP
NATIONAL WEATHER SERVICE FORT WORTH TX
100 AM CST TUE DEC 12 2017

NOTE: "FAIR" INDICATES FEW OR NO CLOUDS BELOW 12,000 FEET WITH NO
SIGNIFICANT WEATHER AND/OR OBSTRUCTIONS TO VISIBILITY.

TXZ118-119-120800-
DALLAS/FORT WORTH METROPLEX

CITY           SKY/WX    TMP DP  RH WIND       PRES   REMARKS
DFW AIRPORT    PTCLDY    54  22  28 N14       30.24R
DALLAS LOVE    PTCLDY    55  22  27 N14       30.25R
FTW MEACHAM    CLEAR     55  20  25 N20G26    30.26R
DAL-EXECUTIVE  CLEAR     55  23  28 N13       30.24R
FTW-ALLIANCE   PTCLDY    54  21  27 N20       30.26R
FTW-NAS-JRB    CLEAR     53  22  29 N12       30.28R
FTW-SPINKS     CLEAR     53  21  29 N16       30.27R
ARLINGTON      CLEAR     55  20  25 N16       30.26R
GRAND PRAIRIE  CLEAR     56  19  23 N10G17    30.27R
ADDISON        CLEAR     54  20  26 N17       30.27R
MESQUITE       CLEAR     51  22  31 N9        30.24R
LANCASTER      CLEAR     54  20  26 N13       30.25R
$$

TXZ091>094-102>105-117-120-121-131>134-120800-
NORTH CENTRAL TEXAS

CITY           SKY/WX    TMP DP  RH WIND       PRES   REMARKS
SHRMAN/DENISON CLEAR     50  24  36 N10       30.30R
GAINESVILLE    CLEAR     47  19  33 N9        30.32R
BOWIE          PTCLDY    47  20  34 N9        30.32R
BRIDGEPORT     CLEAR     53  20  28 N16G24    30.32R
DECATUR        CLEAR     55  18  23 N16G24    30.28R
DENTON         CLEAR     53  21  28 N17       30.28R
MCKINNEY       PTCLDY    53  22  29 N16       30.25R
BONHAM         CLEAR     50  21  32 NW8       30.27R
GREENVILLE     CLEAR     54  23  30 N15       30.23R
ROCKWALL       CLEAR     53  27  36 N8        30.24R
TERRELL        CLEAR     56  20  24 N10       30.23R
WAXAHACHIE     PTCLDY    55  25  30 N18       30.24R
CLEBURNE       CLEAR     46  21  36 N12       30.26R
GRANBURY       CLEAR     49  19  30 W6        30.28R
$$

TXZ083>090-098>101-113>116-127>130-139>142-154-155-120800-
WESTERN NORTH TEXAS

CITY           SKY/WX    TMP DP  RH WIND       PRES   REMARKS
WICHITA FALLS  CLEAR     46  20  35 N14       30.35R WCI  40
WF-KICKAPOO    CLEAR     50  20  30 N14       30.37R
VERNON         CLEAR     49  11  21 N14       30.39R
ABILENE        CLOUDY    43  20  39 N7        30.33R WCI  39
ABILENE-DYESS  CLOUDY    46  16  29 N6        30.33R
GRAHAM           N/A     51  21  30 N15G23    30.31R
BRECKENRIDGE   CLEAR     49  16  27 N9        30.32R
CISCO          PTCLDY    50  16  25 N7        30.30R
EASTLAND       CLOUDY    46  17  31 N8        30.29R
RANGER         CLOUDY    52  17  25 N8        30.29R
MINERAL WELLS  PTCLDY    50  18  28 N12       30.28R
STEPHENVILLE   CLOUDY    54  15  22 N13       30.29R
COMANCHE       CLOUDY    51  21  30 NW7       30.28R
COLEMAN        CLOUDY    46  20  35 NW7       30.30R
$$

TXZ143>147-156>162-174-175-120800-
CENTRAL TEXAS

CITY           SKY/WX    TMP DP  RH WIND       PRES   REMARKS
WACO           CLOUDY    50  23  34 NW7       30.23R
WACO-MCGREGOR  PTCLDY    49  26  41 NW8       30.24R
HILLSBORO      CLOUDY    49  23  34 N8        30.22R
CORSICANA      PTCLDY    52  23  32 N7        30.21R
MEXIA          CLOUDY    50  24  36 NW7       30.21R
HEARNE         CLEAR     41  35  78 NW5       30.21R WCI  38
CAMERON        CLEAR     50  34  53 NW6       30.21R
TEMPLE         PTCLDY    46  32  58 NW8       30.23R
KILLEEN        PTCLDY    55  26  32 NW12      30.22R
KILLEEN-SKYLRK PTCLDY    53  30  41 NW8       30.24R
FORT HOOD      PTCLDY    53  28  37 NW13      30.20R
GATESVILLE     CLOUDY    45  27  49 CALM      30.26R
HAMILTON       CLOUDY    46  22  39 NW8       30.27R
LAMPASAS       CLOUDY    54  26  33 NW9       30.24R
$$

TXZ095>097-106>112-122>126-135>138-148>153-164>167-120800-
EAST TEXAS

CITY           SKY/WX    TMP DP  RH WIND       PRES   REMARKS
PARIS          CLEAR     51  24  34 N15       30.23R
SULPHUR SPRNGS CLEAR     51  27  39 N12       30.23R
MOUNT PLEASANT CLEAR     50  23  34 NW7       30.20R
GILMER           N/A     55  22  28 NW8       30.17S
MINEOLA        CLEAR     52  25  35 N7        30.20R
TYLER          CLEAR     54  22  28 N10       30.17R
LONGVIEW       PTCLDY    52  27  38 N9        30.15R
MARSHALL       CLEAR     55  20  25 N10       30.17R
ATHENS         CLEAR     52  21  30 N9        30.17S
PALESTINE      CLEAR     48  32  54 CALM      30.20R
JACKSONVILLE   CLEAR     57  27  32 NW5       30.18R
HENDERSON      CLEAR     57  24  28 N8        30.17R
CENTER         SUNNY     54  28  36 NW6       30.15R
NACOGDOCHES    CLEAR     41  34  76 CALM      30.16R
LUFKIN         CLEAR     48  36  63 NW5       30.15R
$$

SUPPLEMENTAL OBSERVATIONS (NWS FORT WORTH AREA)

CITY           SKY/WX    TMP DP  RH WIND       PRES   REMARKS
CADDO GRASSLND   N/A     48  18  29 N3          N/A
PAT MAYSE LAKE   N/A     46  18  31 NW7         N/A
GREENVILLE       N/A     54  21  28 N17G23      N/A
POSSUM KINGDOM   N/A     52  21  30 VRB14       N/A
GRANBURY         N/A     48  19  32 W7          N/A
MCGREGOR         N/A     52  23  32 NW7         N/A
TEMPLE           N/A     54  32  43 NW14        N/A
$$

SUPPLEMENTAL OBSERVATIONS (NWS NORMAN AREA)

CITY           SKY/WX    TMP DP  RH WIND       PRES   REMARKS
GOODLETT         N/A     44  12  27 N10       30.41R WCI  38
ODELL            N/A     37  16  42 NW8       30.41R WCI  30
CROWELL          N/A     46  14  28 N10       30.41R
KNOX CITY        N/A     49  12  22 N14       30.39R
SEYMOUR          N/A     47  17  30 N13       30.38R
MILLERS CREEK    N/A     48  18  29 N10         N/A
$$

SUPPLEMENTAL OBSERVATIONS (NWS SAN ANGELO AREA)

CITY           SKY/WX    TMP DP  RH WIND       PRES   REMARKS
WEINERT          N/A     46  15  28 N13       30.38R
HASKELL          N/A     46  13  26 N14       30.37R WCI  39
THROCKMORTON     N/A     49  18  29 N15       30.36R
STAMFORD         N/A     47  16  28 N13       30.37R
CLYDE            N/A     40  18  40 N7        30.34R WCI  36
HAMBY            N/A     34  19  55 N2          N/A
$$

SUPPLEMENTAL OBSERVATIONS (NWS SHREVEPORT AREA)

CITY           SKY/WX    TMP DP  RH WIND       PRES   REMARKS
TEXARKANA        N/A     54  23  30 NW5         N/A
LINDEN           N/A     54  21  28 NW5         N/A
LUFKIN           N/A     41  37  87 MISG        N/A
N SABINE NF      N/A     50  36  57 MISG        N/A
$$

SUPPLEMENTAL OBSERVATIONS ARE A COLLECTION OF AUTOMATED INSTRUMENTS
THAT ARE MAINTAINED BY A VARIETY OF FEDERAL AND STATE AGENCIES.
CERTAIN ELEMENTS...SUCH AS HUMIDITY VALUES AND SUSTAINED WIND
SPEEDS...MAY BE APPROXIMATED.





USA.gov is the U.S. government's official web portal to all federal, state and local government web resources and services.